Location: Newark
(35.1044°N, 77.3364°W)
Time: 00:15:47
(UTC+00:00)

ISS - Visible Passes

Search period start: 25 January 2021 00:00
Search period end: 04 February 2021 00:00
Orbit: 418 x 421 km, 51.6° (Epoch: 25 January)

Date Brightness Start Highest point End Pass type
(mag) Time Alt. Az. Time Alt. Az. Time Alt. Az.
02 Feb -1.4 00:09:16 10° NNW 00:10:13 14° N 00:10:13 14° N visible
02 Feb -1.5 23:22:30 10° N 23:23:56 12° NNE 23:25:05 11° NE visible
03 Feb -0.6 00:57:51 10° NW 00:58:05 12° NW 00:58:05 12° NW visible
